Time,TemperatureF,DewpointF,PressureIn,WindDirection,WindDirectionDegrees,WindSpeedMPH,WindSpeedGustMPH,Humidity,HourlyPrecipIn,Conditions,Clouds,dailyrainin,SoftwareType,DateUTC
2013-01-09 00:05:00,51.3,50.0,30.02,NW,312,2.0,6.0,96,0.30,,,0.01,weatherlink.com 1.10,2013-01-09 06:05:00,
2013-01-09 00:20:00,51.4,50.0,30.00,North,350,2.0,6.0,96,0.30,,,0.07,weatherlink.com 1.10,2013-01-09 06:20:00,
2013-01-09 00:35:00,51.6,51.0,29.99,NNW,341,7.0,11.0,96,0.27,,,0.08,weatherlink.com 1.10,2013-01-09 06:35:00,
2013-01-09 00:50:00,52.0,51.0,30.02,NW,311,4.0,8.0,97,0.14,,,0.08,weatherlink.com 1.10,2013-01-09 06:50:00,
2013-01-09 01:20:00,51.8,51.0,30.00,NNW,333,8.0,16.0,97,0.11,,,0.18,weatherlink.com 1.10,2013-01-09 07:20:00,
2013-01-09 01:35:00,51.7,51.0,30.02,North,7,7.0,8.0,96,0.11,,,0.19,weatherlink.com 1.10,2013-01-09 07:35:00,
2013-01-09 02:05:00,52.4,52.0,30.03,ENE,69,5.0,8.0,97,0.11,,,0.25,weatherlink.com 1.10,2013-01-09 08:05:00,
2013-01-09 02:20:00,53.2,52.0,30.03,NNE,28,4.0,11.0,97,0.13,,,0.31,weatherlink.com 1.10,2013-01-09 08:20:00,
2013-01-09 02:35:00,53.9,53.0,30.02,North,10,6.0,18.0,97,0.17,,,0.36,weatherlink.com 1.10,2013-01-09 08:35:00,
2013-01-09 02:50:00,54.8,54.0,30.02,North,11,7.0,13.0,97,0.19,,,0.40,weatherlink.com 1.10,2013-01-09 08:50:00,
2013-01-09 03:05:00,55.1,54.0,30.02,NNE,19,7.0,14.0,97,0.18,,,0.44,weatherlink.com 1.10,2013-01-09 09:05:00,
2013-01-09 03:20:00,55.3,55.0,30.02,North,352,12.0,16.0,97,0.16,,,0.47,weatherlink.com 1.10,2013-01-09 09:20:00,
2013-01-09 03:38:00,55.2,54.0,30.02,NNE,15,7.0,16.0,97,0.16,,,0.52,weatherlink.com 1.10,2013-01-09 09:38:00,
2013-01-09 03:50:00,55.1,54.0,30.02,North,2,4.0,16.0,97,0.17,,,0.57,weatherlink.com 1.10,2013-01-09 09:50:00,
2013-01-09 04:05:00,55.2,54.0,30.00,NNW,345,6.0,14.0,97,0.15,,,0.59,weatherlink.com 1.10,2013-01-09 10:05:00,
2013-01-09 04:20:00,55.1,54.0,29.98,North,360,13.0,17.0,97,0.16,,,0.64,weatherlink.com 1.10,2013-01-09 10:20:00,
2013-01-09 04:35:00,54.9,54.0,30.00,NNE,16,6.0,15.0,97,0.13,,,0.65,weatherlink.com 1.10,2013-01-09 10:35:00,
2013-01-09 04:50:00,54.9,54.0,29.99,NNE,18,7.0,12.0,97,0.08,,,0.65,weatherlink.com 1.10,2013-01-09 10:50:00,
2013-01-09 05:05:00,55.1,54.0,29.99,NNE,12,8.0,12.0,97,0.05,,,0.65,weatherlink.com 1.10,2013-01-09 11:05:00,
2013-01-09 05:20:00,55.3,55.0,30.00,NNW,344,10.0,12.0,97,0.01,,,0.65,weatherlink.com 1.10,2013-01-09 11:20:00,
2013-01-09 05:35:00,55.3,54.0,29.98,NNE,16,8.0,11.0,96,0.03,,,0.68,weatherlink.com 1.10,2013-01-09 11:35:00,
2013-01-09 05:50:00,55.3,54.0,29.98,North,359,5.0,11.0,96,0.06,,,0.71,weatherlink.com 1.10,2013-01-09 11:50:00,
2013-01-09 06:05:00,55.3,54.0,29.99,NNE,23,4.0,8.0,96,0.08,,,0.73,weatherlink.com 1.10,2013-01-09 12:05:00,
2013-01-09 06:23:00,55.4,54.0,29.99,NNW,347,6.0,8.0,96,0.09,,,0.74,weatherlink.com 1.10,2013-01-09 12:23:00,
2013-01-09 06:35:00,55.4,54.0,30.00,North,355,3.0,7.0,96,0.07,,,0.75,weatherlink.com 1.10,2013-01-09 12:35:00,
2013-01-09 06:50:00,55.4,54.0,29.99,NNW,339,3.0,5.0,96,0.04,,,0.75,weatherlink.com 1.10,2013-01-09 12:50:00,
2013-01-09 07:05:00,55.7,55.0,30.00,North,350,5.0,9.0,97,0.03,,,0.76,weatherlink.com 1.10,2013-01-09 13:05:00,
2013-01-09 07:23:00,55.7,55.0,30.00,NNE,23,3.0,7.0,97,0.07,,,0.81,weatherlink.com 1.10,2013-01-09 13:23:00,
2013-01-09 07:36:00,55.8,55.0,30.02,ENE,59,3.0,10.0,97,0.11,,,0.86,weatherlink.com 1.10,2013-01-09 13:36:00,
2013-01-09 07:51:00,55.7,55.0,29.99,North,4,13.0,21.0,96,0.18,,,0.93,weatherlink.com 1.10,2013-01-09 13:51:00,
2013-01-09 08:06:00,54.9,54.0,30.02,NNE,28,8.0,17.0,96,0.22,,,0.98,weatherlink.com 1.10,2013-01-09 14:06:00,
2013-01-09 08:21:00,54.3,53.0,30.02,NNE,23,7.0,15.0,96,0.17,,,0.99,weatherlink.com 1.10,2013-01-09 14:21:00,
2013-01-09 08:36:00,53.7,53.0,30.02,NNE,33,4.0,15.0,96,0.13,,,0.99,weatherlink.com 1.10,2013-01-09 14:36:00,
2013-01-09 08:51:00,53.1,52.0,30.02,NNW,330,8.0,19.0,96,0.06,,,0.99,weatherlink.com 1.10,2013-01-09 14:51:00,
2013-01-09 09:06:00,52.7,52.0,30.03,NNE,33,13.0,17.0,96,0.02,,,1.00,weatherlink.com 1.10,2013-01-09 15:06:00,
2013-01-09 09:21:00,52.5,51.0,30.03,North,351,6.0,11.0,96,0.04,,,1.03,weatherlink.com 1.10,2013-01-09 15:21:00,
2013-01-09 09:36:00,52.2,51.0,30.02,NNW,344,4.0,12.0,96,0.06,,,1.05,weatherlink.com 1.10,2013-01-09 15:36:00,
2013-01-09 09:51:00,52.2,51.0,30.02,NNW,344,5.0,14.0,96,0.06,,,1.06,weatherlink.com 1.10,2013-01-09 15:51:00,
2013-01-09 10:06:00,52.3,51.0,30.02,NNW,340,5.0,13.0,96,0.09,,,1.09,weatherlink.com 1.10,2013-01-09 16:06:00,
2013-01-09 10:21:00,52.3,51.0,30.02,North,11,7.0,11.0,96,0.10,,,1.13,weatherlink.com 1.10,2013-01-09 16:21:00,
2013-01-09 10:36:00,52.4,51.0,30.01,NNW,345,6.0,11.0,96,0.18,,,1.23,weatherlink.com 1.10,2013-01-09 16:36:00,
2013-01-09 10:51:00,52.6,52.0,29.99,NNW,345,4.0,13.0,96,0.20,,,1.26,weatherlink.com 1.10,2013-01-09 16:51:00,
2013-01-09 11:06:00,52.6,52.0,30.00,North,353,6.0,11.0,96,0.18,,,1.27,weatherlink.com 1.10,2013-01-09 17:06:00,
2013-01-09 11:22:00,52.9,52.0,29.98,NNW,334,6.0,10.0,96,0.16,,,1.29,weatherlink.com 1.10,2013-01-09 17:22:00,
2013-01-09 11:36:00,53.0,52.0,29.98,North,349,7.0,9.0,96,0.07,,,1.30,weatherlink.com 1.10,2013-01-09 17:36:00,
2013-01-09 11:51:00,53.2,52.0,29.98,NNW,339,1.0,8.0,96,0.06,,,1.32,weatherlink.com 1.10,2013-01-09 17:51:00,
2013-01-09 12:06:00,53.3,52.0,29.98,NW,306,4.0,6.0,96,0.08,,,1.35,weatherlink.com 1.10,2013-01-09 18:06:00,
2013-01-09 12:21:00,53.5,52.0,29.96,WNW,300,2.0,7.0,96,0.09,,,1.38,weatherlink.com 1.10,2013-01-09 18:21:00,
2013-01-09 12:36:00,53.5,52.0,29.96,West,268,4.0,7.0,96,0.12,,,1.42,weatherlink.com 1.10,2013-01-09 18:36:00,
2013-01-09 12:51:00,53.7,53.0,29.97,West,275,4.0,11.0,97,0.13,,,1.45,weatherlink.com 1.10,2013-01-09 18:51:00,
2013-01-09 13:06:00,53.6,53.0,29.96,West,272,5.0,12.0,96,0.14,,,1.49,weatherlink.com 1.10,2013-01-09 19:06:00,
2013-01-09 13:21:00,53.7,53.0,29.96,West,267,5.0,9.0,97,0.13,,,1.51,weatherlink.com 1.10,2013-01-09 19:21:00,
2013-01-09 13:36:00,53.7,53.0,29.96,West,278,5.0,10.0,97,0.12,,,1.54,weatherlink.com 1.10,2013-01-09 19:36:00,
2013-01-09 13:51:00,53.9,53.0,29.94,NNW,343,3.0,8.0,97,0.11,,,1.56,weatherlink.com 1.10,2013-01-09 19:51:00,
2013-01-09 14:06:00,53.9,53.0,29.90,NNW,347,6.0,14.0,97,0.07,,,1.56,weatherlink.com 1.10,2013-01-09 20:06:00,
2013-01-09 14:21:00,54.0,53.0,29.85,NNE,33,10.0,17.0,97,0.05,,,1.56,weatherlink.com 1.10,2013-01-09 20:21:00,
2013-01-09 14:37:00,54.2,53.0,29.85,NNE,16,12.0,15.0,97,0.02,,,1.56,weatherlink.com 1.10,2013-01-09 20:37:00,
2013-01-09 14:51:00,54.7,54.0,29.84,NNE,16,4.0,16.0,97,0.00,,,1.56,weatherlink.com 1.10,2013-01-09 20:51:00,
2013-01-09 15:06:00,55.7,55.0,29.86,NE,53,5.0,12.0,97,0.00,,,1.56,weatherlink.com 1.10,2013-01-09 21:06:00,
2013-01-09 15:21:00,56.0,55.0,29.88,NNE,23,7.0,14.0,96,0.00,,,1.56,weatherlink.com 1.10,2013-01-09 21:21:00,
2013-01-09 15:36:00,56.0,55.0,29.90,NNE,23,0.0,5.0,96,0.00,,,1.56,weatherlink.com 1.10,2013-01-09 21:36:00,
2013-01-09 15:51:00,56.4,55.0,29.90,NNE,23,0.0,2.0,96,0.00,,,1.56,weatherlink.com 1.10,2013-01-09 21:51:00,
2013-01-09 16:06:00,56.5,55.0,29.89,SW,219,0.0,3.0,96,0.00,,,1.56,weatherlink.com 1.10,2013-01-09 22:06:00,
2013-01-09 16:21:00,56.6,56.0,29.90,SW,219,0.0,0.0,96,0.00,,,1.56,weatherlink.com 1.10,2013-01-09 22:21:00,
2013-01-09 16:36:00,56.9,56.0,29.92,SSW,210,0.0,4.0,97,0.00,,,1.56,weatherlink.com 1.10,2013-01-09 22:36:00,
2013-01-09 16:51:00,56.6,56.0,29.91,SSW,213,0.0,4.0,96,0.00,,,1.56,weatherlink.com 1.10,2013-01-09 22:51:00,
2013-01-09 17:06:00,56.3,55.0,29.93,SW,228,2.0,5.0,96,0.01,,,1.57,weatherlink.com 1.10,2013-01-09 23:06:00,
2013-01-09 17:21:00,56.2,55.0,29.93,SW,218,4.0,8.0,97,0.01,,,1.57,weatherlink.com 1.10,2013-01-09 23:21:00,
2013-01-09 17:36:00,56.1,55.0,29.94,WSW,253,8.0,9.0,96,0.01,,,1.57,weatherlink.com 1.10,2013-01-09 23:36:00,
2013-01-09 17:51:00,56.0,55.0,29.95,WSW,253,1.0,7.0,96,0.01,,,1.57,weatherlink.com 1.10,2013-01-09 23:51:00,
2013-01-09 18:07:00,56.0,55.0,29.95,SW,226,0.0,4.0,96,0.00,,,1.57,weatherlink.com 1.10,2013-01-10 00:07:00,
2013-01-09 18:21:00,56.2,55.0,29.96,SW,214,0.0,3.0,97,0.00,,,1.57,weatherlink.com 1.10,2013-01-10 00:21:00,
2013-01-09 18:36:00,56.1,55.0,29.97,SSW,200,1.0,3.0,97,0.00,,,1.57,weatherlink.com 1.10,2013-01-10 00:36:00,
2013-01-09 18:51:00,56.1,55.0,29.98,WSW,240,0.0,6.0,97,0.00,,,1.57,weatherlink.com 1.10,2013-01-10 00:51:00,
2013-01-09 19:06:00,55.8,55.0,29.98,West,276,2.0,4.0,97,0.00,,,1.57,weatherlink.com 1.10,2013-01-10 01:06:00,
2013-01-09 19:21:00,55.7,55.0,29.98,West,268,0.0,1.0,97,0.01,,,1.58,weatherlink.com 1.10,2013-01-10 01:21:00,
2013-01-09 19:36:00,55.6,55.0,29.97,West,268,0.0,3.0,97,0.01,,,1.58,weatherlink.com 1.10,2013-01-10 01:36:00,
2013-01-09 19:51:00,55.5,55.0,29.96,West,268,0.0,0.0,97,0.01,,,1.58,weatherlink.com 1.10,2013-01-10 01:51:00,
2013-01-09 20:06:00,55.5,55.0,29.97,West,268,0.0,0.0,97,0.01,,,1.58,weatherlink.com 1.10,2013-01-10 02:06:00,
2013-01-09 20:21:00,55.4,55.0,29.97,West,268,0.0,0.0,97,0.00,,,1.58,weatherlink.com 1.10,2013-01-10 02:21:00,
2013-01-09 20:36:00,55.4,55.0,29.97,WSW,244,0.0,2.0,97,0.00,,,1.58,weatherlink.com 1.10,2013-01-10 02:36:00,
2013-01-09 20:51:00,55.3,55.0,29.97,WSW,243,0.0,3.0,97,0.00,,,1.58,weatherlink.com 1.10,2013-01-10 02:51:00,
2013-01-09 21:06:00,55.3,55.0,29.97,WSW,243,0.0,1.0,97,0.00,,,1.58,weatherlink.com 1.10,2013-01-10 03:06:00,
2013-01-09 21:21:00,55.3,55.0,29.98,WSW,243,0.0,0.0,97,0.00,,,1.58,weatherlink.com 1.10,2013-01-10 03:21:00,
2013-01-09 21:36:00,55.3,55.0,29.98,WSW,243,0.0,0.0,97,0.00,,,1.58,weatherlink.com 1.10,2013-01-10 03:36:00,
2013-01-09 21:51:00,55.2,54.0,29.98,WSW,243,0.0,0.0,97,0.00,,,1.58,weatherlink.com 1.10,2013-01-10 03:51:00,
2013-01-09 22:06:00,55.2,54.0,29.98,WSW,240,0.0,2.0,97,0.00,,,1.58,weatherlink.com 1.10,2013-01-10 04:06:00,
2013-01-09 22:21:00,54.8,54.0,29.99,SW,222,2.0,2.0,97,0.00,,,1.58,weatherlink.com 1.10,2013-01-10 04:21:00,
2013-01-09 22:37:00,54.6,54.0,30.00,SW,222,0.0,2.0,97,0.00,,,1.58,weatherlink.com 1.10,2013-01-10 04:37:00,
2013-01-09 22:52:00,54.1,53.0,30.00,SW,223,2.0,3.0,97,0.00,,,1.58,weatherlink.com 1.10,2013-01-10 04:52:00,
2013-01-09 23:07:00,54.4,54.0,30.00,SSW,195,1.0,5.0,97,0.00,,,1.58,weatherlink.com 1.10,2013-01-10 05:07:00,
2013-01-09 23:22:00,54.3,54.0,29.99,SSW,195,0.0,4.0,97,0.00,,,1.58,weatherlink.com 1.10,2013-01-10 05:22:00,
2013-01-09 23:53:00,52.6,52.0,29.99,SSW,196,0.0,2.0,97,0.00,,,1.58,weatherlink.com 1.10,2013-01-10 05:53:00,